| time (UTC) | temp F | wind direction | speed knots | gust knots | rain 1hr in | rain 24hr in | rain mn in | humidity % | barometer mb |
| 20260901010115 | 74 | 20 | 3.5 | 9.6 | 0.00 | 0.00 | 0.00 | 28 | 1019.4 |
| 20260901005559 | 74 | 94 | 3.5 | 8.7 | 0.00 | 0.00 | 0.00 | 28 | 1019.3 |
| 20260901005058 | 74 | 83 | 3.5 | 10.4 | 0.00 | 0.00 | 0.00 | 29 | 1019.4 |
| 20260901004618 | 74 | 60 | 4.3 | 10.4 | 0.00 | 0.00 | 0.00 | 28 | 1019.3 |
| 20260901004058 | 74 | 103 | 0.9 | 10.4 | 0.00 | 0.00 | 0.00 | 28 | 1019.4 |
| 20260901003602 | 74 | 120 | 3.5 | 10.4 | 0.00 | 0.00 | 0.00 | 28 | 1019.5 |
| 20260901003102 | 74 | 85 | 5.2 | 9.6 | 0.00 | 0.00 | 0.00 | 28 | 1019.6 |
| 20260901002559 | 75 | 122 | 4.3 | 10.4 | 0.00 | 0.00 | 0.00 | 28 | 1019.5 |
| 20260901002059 | 74 | 153 | 5.2 | 10.4 | 0.00 | 0.00 | 0.00 | 28 | 1019.6 |
| 20260901001606 | 75 | 105 | 4.3 | 8.7 | 0.00 | 0.00 | 0.00 | 28 | 1019.6 |
| 20260901001059 | 75 | 117 | 3.5 | 8.7 | 0.00 | 0.00 | 0.00 | 28 | 1019.6 |
| 20260901000601 | 75 | 82 | 5.2 | 10.4 | 0.00 | 0.00 | 0.00 | 28 | 1019.7 |
| 20260901000110 | 75 | 102 | 4.3 | 10.4 | 0.00 | 0.00 | 0.00 | 29 | 1019.7 |
| 20260831235558 | 74 | 115 | 3.5 | 9.6 | 0.00 | 0.00 | 0.00 | 29 | 1019.7 |
| 20260831235055 | 75 | 170 | 4.3 | 11.3 | 0.00 | 0.00 | 0.00 | 28 | 1019.6 |
| 20260831234609 | 75 | 142 | 5.2 | 13.0 | 0.00 | 0.00 | 0.00 | 29 | 1019.9 |
| 20260831234057 | 75 | 84 | 7.0 | 13.0 | 0.00 | 0.00 | 0.00 | 29 | 1019.7 |
| 20260831233556 | 75 | 136 | 7.0 | 11.3 | 0.00 | 0.00 | 0.00 | 28 | 1019.7 |
| 20260831233105 | 75 | 37 | 1.7 | 9.6 | 0.00 | 0.00 | 0.00 | 29 | 1019.6 |
| 20260831232558 | 74 | 0 | 5.2 | 9.6 | 0.00 | 0.00 | 0.00 | 28 | 1019.5 |
| 20260831232056 | 75 | 24 | 4.3 | 9.6 | 0.00 | 0.00 | 0.00 | 28 | 1019.6 |
| 20260831231609 | 75 | 130 | 6.1 | 9.6 | 0.00 | 0.00 | 0.00 | 29 | 1019.7 |
| 20260831231057 | 75 | 118 | 3.5 | 12.2 | 0.00 | 0.00 | 0.00 | 29 | 1019.8 |
| 20260831230557 | 75 | 235 | 3.5 | 12.2 | 0.00 | 0.00 | 0.00 | 30 | 1019.8 |
| 20260831225556 | 75 | 119 | 4.3 | 15.6 | 0.00 | 0.00 | 0.00 | 29 | 1019.9 |
| 20260831225056 | 75 | 96 | 3.5 | 15.6 | 0.00 | 0.00 | 0.00 | 29 | 1019.9 |
| 20260831224610 | 74 | 131 | 7.0 | 15.6 | 0.00 | 0.00 | 0.00 | 30 | 1019.9 |
| 20260831224058 | 75 | 0 | 1.7 | 8.7 | 0.00 | 0.00 | 0.00 | 29 | 1020.1 |
| 20260831223558 | 75 | 155 | 3.5 | 12.2 | 0.00 | 0.00 | 0.00 | 28 | 1020.2 |
| 20260831223107 | 75 | 73 | 4.3 | 14.8 | 0.00 | 0.00 | 0.00 | 28 | 1020.3 |
| 20260831222600 | 75 | 129 | 6.1 | 14.8 | 0.00 | 0.00 | 0.00 | 28 | 1020.3 |
| 20260831222057 | 76 | 84 | 2.6 | 10.4 | 0.00 | 0.00 | 0.00 | 29 | 1020.4 |
| 20260831221610 | 75 | 0 | 2.6 | 13.0 | 0.00 | 0.00 | 0.00 | 28 | 1020.5 |
| 20260831221101 | 76 | 118 | 6.1 | 13.0 | 0.00 | 0.00 | 0.00 | 29 | 1020.5 |
| 20260831220557 | 76 | 76 | 4.3 | 11.3 | 0.00 | 0.00 | 0.00 | 29 | 1020.4 |
| 20260831220105 | 75 | 84 | 2.6 | 13.0 | 0.00 | 0.00 | 0.00 | 29 | 1020.5 |
| 20260831215557 | 75 | 107 | 3.5 | 13.0 | 0.00 | 0.00 | 0.00 | 29 | 1020.5 |
| 20260831215058 | 75 | 46 | 5.2 | 12.2 | 0.00 | 0.00 | 0.00 | 30 | 1020.4 |
| 20260831214607 | 75 | 40 | 1.7 | 9.6 | 0.00 | 0.00 | 0.00 | 29 | 1020.6 |
| 20260831214057 | 77 | 52 | 0.9 | 6.1 | 0.00 | 0.00 | 0.00 | 29 | 1020.9 |
| 20260831213556 | 76 | 0 | 0.9 | 11.3 | 0.00 | 0.00 | 0.00 | 29 | 1020.9 |
| 20260831213101 | 74 | 160 | 0.9 | 11.3 | 0.00 | 0.00 | 0.00 | 30 | 1021.1 |
| 20260831212556 | 74 | 69 | 5.2 | 11.3 | 0.00 | 0.00 | 0.00 | 30 | 1020.9 |
| 20260831212059 | 75 | 134 | 2.6 | 11.3 | 0.00 | 0.00 | 0.00 | 31 | 1021.0 |
| 20260831211606 | 74 | 123 | 4.3 | 14.8 | 0.00 | 0.00 | 0.00 | 30 | 1021.1 |
| 20260831211057 | 74 | 148 | 5.2 | 14.8 | 0.00 | 0.00 | 0.00 | 30 | 1021.0 |
| 20260831210556 | 74 | 76 | 5.2 | 14.8 | 0.00 | 0.00 | 0.00 | 30 | 1021.2 |
| 20260831210106 | 75 | 32 | 6.1 | 11.3 | 0.00 | 0.00 | 0.00 | 30 | 1021.1 |
| 20260831205559 | 74 | 97 | 5.2 | 15.6 | 0.00 | 0.00 | 0.00 | 32 | 1021.1 |
| 20260831205057 | 74 | 129 | 5.2 | 15.6 | 0.00 | 0.00 | 0.00 | 32 | 1021.2 |
| 20260831204603 | 74 | 30 | 6.1 | 16.5 | 0.00 | 0.00 | 0.00 | 32 | 1021.3 |
| 20260831204057 | 74 | 117 | 6.1 | 16.5 | 0.00 | 0.00 | 0.00 | 32 | 1021.3 |
| 20260831203557 | 73 | 140 | 7.0 | 16.5 | 0.00 | 0.00 | 0.00 | 32 | 1021.3 |
| 20260831203107 | 73 | 164 | 7.0 | 16.5 | 0.00 | 0.00 | 0.00 | 32 | 1021.3 |
| 20260831202558 | 73 | 97 | 7.0 | 16.5 | 0.00 | 0.00 | 0.00 | 33 | 1021.2 |
| 20260831202058 | 72 | 55 | 6.1 | 20.0 | 0.00 | 0.00 | 0.00 | 32 | 1021.4 |
| 20260831201603 | 73 | 136 | 7.0 | 20.0 | 0.00 | 0.00 | 0.00 | 33 | 1021.4 |
| 20260831201058 | 73 | 175 | 7.0 | 15.6 | 0.00 | 0.00 | 0.00 | 33 | 1021.4 |
| 20260831200558 | 73 | 68 | 7.8 | 13.9 | 0.00 | 0.00 | 0.00 | 33 | 1021.4 |
| 20260831200107 | 72 | 104 | 5.2 | 17.4 | 0.00 | 0.00 | 0.00 | 34 | 1021.5 |
| 20260831195558 | 72 | 51 | 9.6 | 17.4 | 0.00 | 0.00 | 0.00 | 33 | 1021.4 |
| 20260831195057 | 71 | 113 | 8.7 | 15.6 | 0.00 | 0.00 | 0.00 | 33 | 1021.6 |
| 20260831194640 | 71 | 107 | 8.7 | 16.5 | 0.00 | 0.00 | 0.00 | 33 | 1021.7 |
| 20260831194057 | 72 | 104 | 7.0 | 16.5 | 0.00 | 0.00 | 0.00 | 33 | 1021.7 |
| 20260831193558 | 72 | 69 | 7.8 | 16.5 | 0.00 | 0.00 | 0.00 | 32 | 1021.7 |
| 20260831193104 | 71 | 100 | 7.0 | 18.2 | 0.00 | 0.00 | 0.00 | 34 | 1021.8 |
| 20260831192558 | 71 | 104 | 8.7 | 18.2 | 0.00 | 0.00 | 0.00 | 33 | 1021.9 |
| 20260831192058 | 71 | 96 | 7.8 | 14.8 | 0.00 | 0.00 | 0.00 | 33 | 1021.8 |
| 20260831191608 | 71 | 68 | 8.7 | 18.2 | 0.00 | 0.00 | 0.00 | 33 | 1022.1 |
| 20260831191058 | 71 | 153 | 7.8 | 18.2 | 0.00 | 0.00 | 0.00 | 33 | 1022.0 |
| 20260831190558 | 71 | 119 | 8.7 | 15.6 | 0.00 | 0.00 | 0.00 | 32 | 1022.2 |
| 20260831190130 | 71 | 148 | 8.7 | 15.6 | 0.00 | 0.00 | 0.00 | 32 | 1022.1 |
| 20260831185558 | 71 | 175 | 6.1 | 16.5 | 0.00 | 0.00 | 0.00 | 33 | 1022.1 |
| 20260831185058 | 70 | 139 | 9.6 | 21.7 | 0.00 | 0.00 | 0.00 | 32 | 1022.3 |
| 20260831184614 | 70 | 115 | 7.0 | 21.7 | 0.00 | 0.00 | 0.00 | 33 | 1022.2 |
| 20260831184059 | 70 | 95 | 7.8 | 17.4 | 0.00 | 0.00 | 0.00 | 32 | 1022.2 |
| 20260831183559 | 71 | 117 | 5.2 | 13.9 | 0.00 | 0.00 | 0.00 | 32 | 1022.3 |
| 20260831183111 | 70 | 106 | 8.7 | 13.9 | 0.00 | 0.00 | 0.00 | 32 | 1022.3 |
| 20260831182601 | 71 | 122 | 6.1 | 12.2 | 0.00 | 0.00 | 0.00 | 32 | 1022.3 |
| 20260831182058 | 70 | 19 | 6.1 | 12.2 | 0.00 | 0.00 | 0.00 | 32 | 1022.4 |
| 20260831181606 | 70 | 119 | 5.2 | 12.2 | 0.00 | 0.00 | 0.00 | 32 | 1022.4 |
| 20260831181058 | 70 | 153 | 5.2 | 13.9 | 0.00 | 0.00 | 0.00 | 31 | 1022.4 |
| 20260831180559 | 70 | 110 | 4.3 | 14.8 | 0.00 | 0.00 | 0.00 | 32 | 1022.4 |
| 20260831180109 | 70 | 26 | 7.0 | 14.8 | 0.00 | 0.00 | 0.00 | 31 | 1022.3 |
| 20260831175600 | 72 | 60 | 4.3 | 12.2 | 0.00 | 0.00 | 0.00 | 30 | 1022.3 |
| 20260831175058 | 72 | 276 | 1.7 | 4.3 | 0.00 | 0.00 | 0.00 | 31 | 1022.4 |
| 20260831174639 | 72 | 0 | 0.9 | 3.5 | 0.00 | 0.00 | 0.00 | 29 | 1022.3 |
| 20260831174058 | 72 | 352 | 0.9 | 3.5 | 0.00 | 0.00 | 0.00 | 30 | 1022.4 |
| 20260831173558 | 71 | 349 | 0.9 | 3.5 | 0.00 | 0.00 | 0.00 | 30 | 1022.4 |
| 20260831173105 | 70 | 311 | 0.9 | 3.5 | 0.00 | 0.00 | 0.00 | 30 | 1022.4 |
| 20260831172558 | 70 | 56 | 0.9 | 3.5 | 0.00 | 0.00 | 0.00 | 32 | 1022.6 |
| 20260831172058 | 69 | 306 | 1.7 | 4.3 | 0.00 | 0.00 | 0.00 | 34 | 1022.6 |
| 20260831171604 | 69 | 74 | 0.0 | 4.3 | 0.00 | 0.00 | 0.00 | 35 | 1022.6 |
| 20260831171058 | 70 | 51 | 0.0 | 1.7 | 0.00 | 0.00 | 0.00 | 33 | 1022.5 |
| 20260831170558 | 69 | 244 | 0.0 | 2.6 | 0.00 | 0.00 | 0.00 | 34 | 1022.6 |
| 20260831170107 | 67 | 290 | 0.0 | 2.6 | 0.00 | 0.00 | 0.00 | 39 | 1022.5 |
| 20260831165559 | 66 | 44 | 0.0 | 3.5 | 0.00 | 0.00 | 0.00 | 41 | 1022.5 |
| 20260831165058 | 65 | 53 | 1.7 | 3.5 | 0.00 | 0.00 | 0.00 | 44 | 1022.6 |
| 20260831164605 | 65 | 42 | 0.9 | 2.6 | 0.00 | 0.00 | 0.00 | 42 | 1022.6 |
| 20260831164100 | 65 | 0 | 0.9 | 3.5 | 0.00 | 0.00 | 0.00 | 41 | 1022.8 |
| 20260831163558 | 64 | 52 | 1.7 | 3.5 | 0.00 | 0.00 | 0.00 | 45 | 1022.8 |
| 20260831163107 | 63 | 53 | 0.9 | 3.5 | 0.00 | 0.00 | 0.00 | 42 | 1022.8 |
| 20260831162559 | 63 | 53 | 0.9 | 3.5 | 0.00 | 0.00 | 0.00 | 42 | 1022.9 |
| 20260831162058 | 63 | 43 | 1.7 | 4.3 | 0.00 | 0.00 | 0.00 | 47 | 1022.9 |
| 20260831161608 | 62 | 34 | 1.7 | 4.3 | 0.00 | 0.00 | 0.00 | 47 | 1022.9 |
| 20260831161058 | 63 | 45 | 0.9 | 2.6 | 0.00 | 0.00 | 0.00 | 44 | 1022.9 |
| 20260831160558 | 62 | 52 | 0.0 | 2.6 | 0.00 | 0.00 | 0.00 | 47 | 1022.8 |
| 20260831160106 | 61 | 0 | 0.9 | 2.6 | 0.00 | 0.00 | 0.00 | 45 | 1022.9 |
| 20260831155601 | 60 | 47 | 0.0 | 2.6 | 0.00 | 0.00 | 0.00 | 45 | 1022.9 |
| 20260831155058 | 59 | 38 | 1.7 | 2.6 | 0.00 | 0.00 | 0.00 | 55 | 1022.9 |
| 20260831154627 | 58 | 0 | 0.0 | 1.7 | 0.00 | 0.00 | 0.00 | 58 | 1022.8 |
| 20260831154057 | 58 | 71 | 0.0 | 0.9 | 0.00 | 0.00 | 0.00 | 60 | 1022.8 |
| 20260831153601 | 57 | 0 | 0.0 | 0.9 | 0.00 | 0.00 | 0.00 | 61 | 1022.9 |
| 20260831153118 | 56 | 0 | 0.0 | 0.9 | 0.00 | 0.00 | 0.00 | 63 | 1023.0 |
| 20260831152558 | 54 | 95 | 0.0 | 0.9 | 0.00 | 0.00 | 0.00 | 66 | 1023.0 |
| 20260831152058 | 53 | 0 | 0.0 | 0.9 | 0.00 | 0.00 | 0.00 | 66 | 1022.9 |
| 20260831151613 | 53 | 86 | 0.0 | 0.9 | 0.00 | 0.00 | 0.00 | 69 | 1022.9 |
| 20260831151059 | 52 | 0 | 0.0 | 0.9 | 0.00 | 0.00 | 0.00 | 68 | 1022.9 |
| 20260831150559 | 51 | 0 | 0.0 | 0.9 | 0.00 | 0.00 | 0.00 | 71 | 1022.9 |
| 20260831150106 | 51 | 0 | 0.0 | 0.9 | 0.00 | 0.00 | 0.00 | 71 | 1022.9 |
| 20260831145559 | 51 | 0 | 0.0 | 0.0 | 0.00 | 0.00 | 0.00 | 72 | 1022.9 |
| 20260831145058 | 50 | 0 | 0.0 | 0.9 | 0.00 | 0.00 | 0.00 | 74 | 1022.9 |
| 20260831144605 | 48 | 0 | 0.0 | 0.9 | 0.00 | 0.00 | 0.00 | 76 | 1022.9 |
| 20260831144058 | 47 | 0 | 0.0 | 0.0 | 0.00 | 0.00 | 0.00 | 74 | 1023.0 |
| 20260831143558 | 46 | 0 | 0.0 | 0.9 | 0.00 | 0.00 | 0.00 | 76 | 1022.8 |
| 20260831143103 | 44 | 0 | 0.0 | 0.9 | 0.00 | 0.00 | 0.00 | 80 | 1022.8 |
| 20260831142558 | 42 | 0 | 0.0 | 0.9 | 0.00 | 0.00 | 0.00 | 82 | 1022.8 |
| 20260831142059 | 41 | 0 | 0.0 | 0.0 | 0.00 | 0.00 | 0.00 | 81 | 1022.8 |
| 20260831141606 | 42 | 0 | 0.0 | 0.0 | 0.00 | 0.00 | 0.00 | 81 | 1022.9 |
| 20260831141057 | 42 | 0 | 0.0 | 0.0 | 0.00 | 0.00 | 0.00 | 80 | 1022.9 |
| 20260831140558 | 42 | 0 | 0.0 | 0.9 | 0.00 | 0.00 | 0.00 | 80 | 1022.8 |
| 20260831140106 | 42 | 0 | 0.0 | 0.9 | 0.00 | 0.00 | 0.00 | 80 | 1022.7 |
| 20260831135559 | 42 | 0 | 0.0 | 0.9 | 0.00 | 0.00 | 0.00 | 80 | 1022.6 |
| 20260831135058 | 42 | 187 | 0.0 | 0.9 | 0.00 | 0.00 | 0.00 | 79 | 1022.6 |
| 20260831134614 | 42 | 0 | 0.0 | 0.9 | 0.00 | 0.00 | 0.00 | 79 | 1022.6 |
| 20260831134057 | 42 | 0 | 0.0 | 0.9 | 0.00 | 0.00 | 0.00 | 78 | 1022.6 |
| 20260831133557 | 42 | 0 | 0.0 | 0.0 | 0.00 | 0.00 | 0.00 | 79 | 1022.6 |
| 20260831133107 | 42 | 0 | 0.0 | 0.0 | 0.00 | 0.00 | 0.00 | 80 | 1022.6 |
| 20260831132557 | 42 | 0 | 0.0 | 0.9 | 0.00 | 0.00 | 0.00 | 80 | 1022.5 |
| 20260831132058 | 42 | 188 | 0.0 | 0.9 | 0.00 | 0.00 | 0.00 | 79 | 1022.5 |
| 20260831131601 | 42 | 174 | 0.0 | 0.9 | 0.00 | 0.00 | 0.00 | 79 | 1022.5 |
| 20260831131058 | 42 | 0 | 0.0 | 0.0 | 0.00 | 0.00 | 0.00 | 78 | 1022.6 |
| 20260831130558 | 42 | 0 | 0.0 | 0.0 | 0.00 | 0.00 | 0.00 | 77 | 1022.4 |
| 20260831130109 | 43 | 0 | 0.0 | 0.0 | 0.00 | 0.00 | 0.00 | 77 | 1022.4 |
| 20260831125558 | 43 | 0 | 0.0 | 0.0 | 0.00 | 0.00 | 0.00 | 77 | 1022.4 |
| 20260831125058 | 43 | 0 | 0.0 | 0.0 | 0.00 | 0.00 | 0.00 | 80 | 1022.4 |
| 20260831124608 | 42 | 0 | 0.0 | 0.0 | 0.00 | 0.00 | 0.00 | 78 | 1022.4 |
| 20260831124057 | 43 | 0 | 0.0 | 0.0 | 0.00 | 0.00 | 0.00 | 76 | 1022.5 |
| 20260831123558 | 43 | 0 | 0.0 | 0.0 | 0.00 | 0.00 | 0.00 | 75 | 1022.4 |
| 20260831123105 | 43 | 0 | 0.0 | 0.0 | 0.00 | 0.00 | 0.00 | 76 | 1022.4 |
| 20260831122601 | 44 | 0 | 0.0 | 0.9 | 0.00 | 0.00 | 0.00 | 76 | 1022.4 |
| 20260831122058 | 43 | 0 | 0.0 | 1.7 | 0.00 | 0.00 | 0.00 | 77 | 1022.4 |
| 20260831121632 | 43 | 0 | 0.0 | 1.7 | 0.00 | 0.00 | 0.00 | 76 | 1022.4 |
| 20260831121058 | 44 | 0 | 0.0 | 0.9 | 0.00 | 0.00 | 0.00 | 75 | 1022.5 |
| 20260831120601 | 44 | 0 | 0.0 | 0.9 | 0.00 | 0.00 | 0.00 | 76 | 1022.5 |
| 20260831120111 | 44 | 0 | 0.0 | 1.7 | 0.00 | 0.00 | 0.00 | 77 | 1022.6 |
| 20260831115557 | 43 | 0 | 0.0 | 1.7 | 0.00 | 0.00 | 0.00 | 76 | 1022.6 |
| 20260831115101 | 44 | 0 | 0.0 | 1.7 | 0.00 | 0.00 | 0.00 | 74 | 1022.6 |
| 20260831114605 | 44 | 0 | 0.0 | 0.9 | 0.00 | 0.00 | 0.00 | 75 | 1022.8 |
| 20260831114057 | 44 | 0 | 0.0 | 0.9 | 0.00 | 0.00 | 0.00 | 75 | 1022.6 |
| 20260831113557 | 44 | 0 | 0.0 | 0.9 | 0.00 | 0.00 | 0.00 | 75 | 1022.6 |
| 20260831113109 | 44 | 174 | 0.0 | 0.9 | 0.00 | 0.00 | 0.00 | 75 | 1022.7 |
| 20260831112558 | 44 | 0 | 0.0 | 0.9 | 0.00 | 0.00 | 0.00 | 76 | 1022.6 |
| 20260831112058 | 44 | 0 | 0.0 | 0.9 | 0.00 | 0.00 | 0.00 | 75 | 1022.7 |
| 20260831111604 | 44 | 0 | 0.0 | 0.0 | 0.00 | 0.00 | 0.00 | 76 | 1022.7 |
| 20260831111058 | 44 | 0 | 0.0 | 0.0 | 0.00 | 0.00 | 0.00 | 75 | 1022.7 |
| 20260831110558 | 45 | 0 | 0.0 | 0.0 | 0.00 | 0.00 | 0.00 | 77 | 1022.7 |
| 20260831110107 | 45 | 0 | 0.0 | 0.0 | 0.00 | 0.00 | 0.00 | 77 | 1022.6 |
| 20260831105622 | 45 | 0 | 0.0 | 0.0 | 0.00 | 0.00 | 0.00 | 77 | 1022.7 |
| 20260831105058 | 45 | 0 | 0.0 | 0.0 | 0.00 | 0.00 | 0.00 | 76 | 1022.8 |
| 20260831104605 | 45 | 0 | 0.0 | 0.0 | 0.00 | 0.00 | 0.00 | 77 | 1022.8 |
| 20260831104058 | 45 | 0 | 0.0 | 0.0 | 0.00 | 0.00 | 0.00 | 75 | 1022.8 |
| 20260831103559 | 46 | 0 | 0.0 | 0.0 | 0.00 | 0.00 | 0.00 | 74 | 1022.7 |
| 20260831103111 | 46 | 0 | 0.0 | 1.7 | 0.00 | 0.00 | 0.00 | 74 | 1022.8 |
| 20260831102557 | 46 | 174 | 0.0 | 1.7 | 0.00 | 0.00 | 0.00 | 73 | 1022.9 |
| 20260831102058 | 47 | 169 | 0.0 | 0.0 | 0.00 | 0.00 | 0.00 | 72 | 1022.9 |
| 20260831101604 | 47 | 0 | 0.0 | 0.0 | 0.00 | 0.00 | 0.00 | 73 | 1023.0 |
| 20260831101058 | 47 | 0 | 0.0 | 0.9 | 0.00 | 0.00 | 0.00 | 71 | 1022.9 |
| 20260831100556 | 47 | 0 | 0.0 | 1.7 | 0.00 | 0.00 | 0.00 | 69 | 1023.0 |
| 20260831100110 | 47 | 0 | 0.0 | 1.7 | 0.00 | 0.00 | 0.00 | 68 | 1022.9 |
| 20260831095557 | 47 | 0 | 0.0 | 1.7 | 0.00 | 0.00 | 0.00 | 67 | 1022.9 |
| 20260831095057 | 47 | 172 | 0.0 | 0.9 | 0.00 | 0.00 | 0.00 | 67 | 1022.9 |
| 20260831094608 | 47 | 0 | 0.0 | 0.9 | 0.00 | 0.00 | 0.00 | 66 | 1022.9 |
| 20260831094058 | 47 | 167 | 0.0 | 0.9 | 0.00 | 0.00 | 0.00 | 67 | 1022.9 |
| 20260831093557 | 47 | 0 | 0.0 | 0.9 | 0.00 | 0.00 | 0.00 | 66 | 1023.0 |
| 20260831093154 | 47 | 0 | 0.0 | 0.0 | 0.00 | 0.00 | 0.00 | 68 | 1023.0 |
| 20260831092558 | 47 | 0 | 0.0 | 0.0 | 0.00 | 0.00 | 0.00 | 67 | 1022.9 |
| 20260831092058 | 47 | 0 | 0.0 | 0.9 | 0.00 | 0.00 | 0.00 | 65 | 1022.9 |
| 20260831091606 | 48 | 0 | 0.0 | 0.9 | 0.00 | 0.00 | 0.00 | 63 | 1022.9 |
| 20260831091058 | 48 | 0 | 0.0 | 0.9 | 0.00 | 0.00 | 0.00 | 62 | 1022.9 |
| 20260831090558 | 49 | 0 | 0.0 | 0.0 | 0.00 | 0.00 | 0.00 | 64 | 1022.8 |
| 20260831090108 | 49 | 0 | 0.0 | 0.9 | 0.00 | 0.00 | 0.00 | 63 | 1022.8 |
| 20260831085558 | 49 | 0 | 0.0 | 1.7 | 0.00 | 0.00 | 0.00 | 63 | 1022.9 |
| 20260831085058 | 49 | 172 | 0.0 | 1.7 | 0.00 | 0.00 | 0.00 | 62 | 1023.1 |
| 20260831084652 | 49 | 170 | 0.0 | 0.9 | 0.00 | 0.00 | 0.00 | 62 | 1023.1 |
| 20260831084057 | 49 | 207 | 0.0 | 0.0 | 0.00 | 0.00 | 0.00 | 62 | 1023.2 |
| 20260831083557 | 50 | 0 | 0.0 | 0.0 | 0.00 | 0.00 | 0.00 | 61 | 1023.1 |
| 20260831083109 | 50 | 0 | 0.0 | 0.0 | 0.00 | 0.00 | 0.00 | 61 | 1023.1 |
| 20260831082601 | 50 | 0 | 0.0 | 0.0 | 0.00 | 0.00 | 0.00 | 61 | 1023.3 |
| 20260831082057 | 50 | 0 | 0.0 | 0.0 | 0.00 | 0.00 | 0.00 | 60 | 1023.2 |
| 20260831081610 | 50 | 0 | 0.0 | 2.6 | 0.00 | 0.00 | 0.00 | 60 | 1023.2 |
| 20260831081058 | 50 | 0 | 0.0 | 2.6 | 0.00 | 0.00 | 0.00 | 61 | 1023.4 |
| 20260831080559 | 50 | 255 | 0.0 | 2.6 | 0.00 | 0.00 | 0.00 | 60 | 1023.5 |
| 20260831080125 | 50 | 0 | 0.0 | 0.0 | 0.00 | 0.00 | 0.00 | 59 | 1023.3 |
| 20260831075558 | 50 | 0 | 0.0 | 2.6 | 0.00 | 0.00 | 0.00 | 58 | 1023.2 |
| 20260831075057 | 50 | 0 | 0.0 | 2.6 | 0.00 | 0.00 | 0.00 | 57 | 1023.3 |
| 20260831074605 | 50 | 143 | 0.0 | 2.6 | 0.00 | 0.00 | 0.00 | 56 | 1023.3 |
| 20260831074057 | 50 | 0 | 0.9 | 2.6 | 0.00 | 0.00 | 0.00 | 56 | 1023.5 |
| 20260831073557 | 50 | 176 | 0.0 | 1.7 | 0.00 | 0.00 | 0.00 | 58 | 1023.5 |
| 20260831073108 | 50 | 168 | 0.0 | 0.9 | 0.00 | 0.00 | 0.00 | 56 | 1023.5 |
| 20260831072600 | 50 | 0 | 0.0 | 0.9 | 0.00 | 0.00 | 0.00 | 58 | 1023.5 |
| 20260831072058 | 50 | 0 | 0.0 | 0.9 | 0.00 | 0.00 | 0.00 | 57 | 1023.5 |
| 20260831071612 | 50 | 0 | 0.0 | 0.9 | 0.00 | 0.00 | 0.00 | 58 | 1023.4 |
| 20260831071057 | 51 | 0 | 0.0 | 0.9 | 0.00 | 0.00 | 0.00 | 57 | 1023.5 |
| 20260831070557 | 51 | 0 | 0.0 | 0.9 | 0.00 | 0.00 | 0.00 | 58 | 1023.4 |
| 20260831070118 | 51 | 0 | 0.0 | 0.0 | 0.00 | 0.00 | 0.00 | 57 | 1023.4 |
| 20260831065557 | 51 | 0 | 0.0 | 1.7 | 0.00 | 0.00 | 0.00 | 57 | 1023.4 |
| 20260831065058 | 51 | 0 | 0.0 | 2.6 | 0.00 | 0.00 | 0.00 | 58 | 1023.5 |
| 20260831064606 | 50 | 170 | 0.9 | 2.6 | 0.00 | 0.00 | 0.00 | 57 | 1023.5 |
| 20260831064059 | 51 | 0 | 0.9 | 2.6 | 0.00 | 0.00 | 0.00 | 53 | 1023.4 |
| 20260831063558 | 52 | 257 | 0.9 | 2.6 | 0.00 | 0.00 | 0.00 | 54 | 1023.5 |
| 20260831063114 | 52 | 172 | 0.9 | 1.7 | 0.00 | 0.00 | 0.00 | 55 | 1023.5 |
| 20260831062559 | 52 | 167 | 0.0 | 1.7 | 0.00 | 0.00 | 0.00 | 53 | 1023.5 |
| 20260831062058 | 52 | 0 | 0.0 | 0.9 | 0.00 | 0.00 | 0.00 | 53 | 1023.4 |
| 20260831061605 | 52 | 0 | 0.0 | 1.7 | 0.00 | 0.00 | 0.00 | 52 | 1023.5 |
| 20260831061058 | 53 | 226 | 0.9 | 1.7 | 0.00 | 0.00 | 0.00 | 49 | 1023.2 |
| 20260831060557 | 53 | 164 | 0.0 | 1.7 | 0.00 | 0.00 | 0.00 | 48 | 1023.3 |
| 20260831060127 | 54 | 167 | 0.0 | 0.9 | 0.00 | 0.00 | 0.00 | 48 | 1023.1 |
| 20260831055602 | 54 | 0 | 0.0 | 0.9 | 0.00 | 0.00 | 0.00 | 46 | 1023.1 |
| 20260831055057 | 54 | 0 | 0.0 | 1.7 | 0.00 | 0.00 | 0.00 | 46 | 1022.9 |
| 20260831054608 | 54 | 0 | 0.0 | 1.7 | 0.00 | 0.00 | 0.00 | 46 | 1023.1 |
| 20260831054058 | 55 | 0 | 0.0 | 1.7 | 0.00 | 0.00 | 0.00 | 47 | 1023.0 |
| 20260831053557 | 55 | 0 | 0.0 | 0.0 | 0.00 | 0.00 | 0.00 | 45 | 1023.0 |
| 20260831053107 | 55 | 0 | 0.0 | 0.0 | 0.00 | 0.00 | 0.00 | 45 | 1023.0 |
| 20260831052558 | 55 | 0 | 0.0 | 0.9 | 0.00 | 0.00 | 0.00 | 46 | 1022.9 |
| 20260831052101 | 56 | 0 | 0.0 | 0.9 | 0.00 | 0.00 | 0.00 | 44 | 1023.0 |
| 20260831051604 | 56 | 0 | 0.0 | 0.9 | 0.00 | 0.00 | 0.00 | 43 | 1023.0 |
| 20260831051057 | 56 | 0 | 0.0 | 3.5 | 0.00 | 0.00 | 0.00 | 44 | 1023.1 |
| 20260831050557 | 56 | 176 | 0.0 | 3.5 | 0.00 | 0.00 | 0.00 | 44 | 1023.1 |
| 20260831050118 | 57 | 217 | 1.7 | 3.5 | 0.00 | 0.00 | 0.00 | 43 | 1023.2 |
| 20260831045558 | 57 | 231 | 0.0 | 1.7 | 0.00 | 0.00 | 0.00 | 43 | 1023.1 |
| 20260831045058 | 57 | 187 | 0.0 | 0.9 | 0.00 | 0.00 | 0.00 | 42 | 1023.2 |
| 20260831044610 | 57 | 179 | 0.0 | 0.9 | 0.00 | 0.00 | 0.00 | 43 | 1023.2 |
| 20260831044058 | 57 | 0 | 0.0 | 0.9 | 0.00 | 0.00 | 0.00 | 43 | 1023.3 |
| 20260831043559 | 57 | 0 | 0.0 | 0.9 | 0.00 | 0.00 | 0.00 | 43 | 1023.3 |
| 20260831043105 | 57 | 0 | 0.0 | 1.7 | 0.00 | 0.00 | 0.00 | 43 | 1023.3 |
| 20260831042600 | 58 | 0 | 0.0 | 1.7 | 0.00 | 0.00 | 0.00 | 44 | 1023.2 |
| 20260831042058 | 59 | 0 | 0.0 | 1.7 | 0.00 | 0.00 | 0.00 | 43 | 1023.3 |
| 20260831041607 | 59 | 0 | 0.0 | 0.9 | 0.00 | 0.00 | 0.00 | 41 | 1023.2 |
| 20260831041059 | 60 | 0 | 0.0 | 0.9 | 0.00 | 0.00 | 0.00 | 40 | 1023.1 |
| 20260831040559 | 60 | 0 | 0.0 | 0.9 | 0.00 | 0.00 | 0.00 | 40 | 1023.1 |
| 20260831040107 | 61 | 0 | 0.0 | 1.7 | 0.00 | 0.00 | 0.00 | 39 | 1023.1 |
| 20260831035557 | 61 | 176 | 0.0 | 1.7 | 0.00 | 0.00 | 0.00 | 40 | 1023.1 |
| 20260831035059 | 61 | 169 | 0.0 | 0.9 | 0.00 | 0.00 | 0.00 | 39 | 1023.1 |
| 20260831034613 | 63 | 0 | 0.0 | 4.3 | 0.00 | 0.00 | 0.00 | 38 | 1023.1 |
| 20260831034057 | 63 | 0 | 0.0 | 4.3 | 0.00 | 0.00 | 0.00 | 37 | 1022.9 |
| 20260831033601 | 64 | 0 | 1.7 | 4.3 | 0.00 | 0.00 | 0.00 | 36 | 1022.9 |
| 20260831033106 | 64 | 0 | 1.7 | 4.3 | 0.00 | 0.00 | 0.00 | 36 | 1022.7 |
| 20260831032558 | 65 | 53 | 2.6 | 7.8 | 0.00 | 0.00 | 0.00 | 36 | 1022.6 |
| 20260831032058 | 65 | 316 | 2.6 | 7.8 | 0.00 | 0.00 | 0.00 | 36 | 1022.5 |
| 20260831031607 | 65 | 56 | 1.7 | 6.1 | 0.00 | 0.00 | 0.00 | 37 | 1022.5 |
| 20260831031100 | 65 | 117 | 1.7 | 6.1 | 0.00 | 0.00 | 0.00 | 37 | 1022.4 |
| 20260831030600 | 65 | 68 | 3.5 | 7.0 | 0.00 | 0.00 | 0.00 | 37 | 1022.3 |
| 20260831030107 | 65 | 157 | 3.5 | 7.0 | 0.00 | 0.00 | 0.00 | 37 | 1022.2 |
| 20260831025558 | 65 | 160 | 1.7 | 5.2 | 0.00 | 0.00 | 0.00 | 37 | 1022.3 |
| 20260831025057 | 65 | 105 | 0.9 | 6.1 | 0.00 | 0.00 | 0.00 | 38 | 1021.9 |
| 20260831024605 | 66 | 20 | 2.6 | 6.1 | 0.00 | 0.00 | 0.00 | 37 | 1022.0 |
| 20260831024102 | 66 | 58 | 0.0 | 7.0 | 0.00 | 0.00 | 0.00 | 40 | 1021.8 |
| 20260831023557 | 65 | 0 | 2.6 | 7.0 | 0.00 | 0.00 | 0.00 | 39 | 1021.7 |
| 20260831023106 | 66 | 118 | 0.0 | 1.7 | 0.00 | 0.00 | 0.00 | 40 | 1021.7 |
| 20260831022558 | 67 | 48 | 0.0 | 1.7 | 0.00 | 0.00 | 0.00 | 38 | 1021.6 |
| 20260831022058 | 67 | 0 | 0.0 | 0.9 | 0.00 | 0.00 | 0.00 | 36 | 1021.6 |
| 20260831021609 | 67 | 0 | 0.0 | 0.0 | 0.00 | 0.00 | 0.00 | 34 | 1021.5 |
| 20260831021058 | 67 | 0 | 0.0 | 0.9 | 0.00 | 0.00 | 0.00 | 34 | 1021.5 |
| 20260831020557 | 68 | 0 | 0.0 | 1.7 | 0.00 | 0.00 | 0.00 | 35 | 1021.5 |
| 20260831020108 | 69 | 158 | 0.0 | 1.7 | 0.00 | 0.00 | 0.00 | 35 | 1021.4 |
| 20260831015557 | 70 | 0 | 0.0 | 0.9 | 0.00 | 0.00 | 0.00 | 33 | 1021.4 |
| 20260831015057 | 71 | 0 | 0.0 | 0.9 | 0.00 | 0.00 | 0.00 | 32 | 1021.5 |
| 20260831014623 | 71 | 0 | 0.0 | 0.9 | 0.00 | 0.00 | 0.00 | 30 | 1021.5 |
| 20260831014058 | 73 | 0 | 0.0 | 0.9 | 0.00 | 0.00 | 0.00 | 29 | 1021.5 |
| 20260831013558 | 73 | 0 | 0.0 | 2.6 | 0.00 | 0.00 | 0.00 | 23 | 1021.5 |
| 20260831013109 | 73 | 0 | 0.0 | 4.3 | 0.00 | 0.00 | 0.00 | 23 | 1021.5 |
| 20260831012558 | 73 | 0 | 1.7 | 4.3 | 0.00 | 0.00 | 0.00 | 23 | 1021.5 |
| 20260831012058 | 73 | 159 | 0.9 | 4.3 | 0.00 | 0.00 | 0.00 | 23 | 1021.6 |
| 20260831011609 | 74 | 243 | 0.9 | 4.3 | 0.00 | 0.00 | 0.00 | 23 | 1021.5 |
| 20260831011057 | 74 | 144 | 0.9 | 4.3 | 0.00 | 0.00 | 0.00 | 23 | 1021.7 |
| 20260831010601 | 74 | 163 | 2.6 | 5.2 | 0.00 | 0.00 | 0.00 | 23 | 1021.7 |